Weather History for KCQB - January, 2014

Change the Weather History Date:

Monday, January 13, 2014

  Actual Average (KCUH) Record (KCUH)
Temperature  
Mean Temperature 50 °F -  
Max Temperature 59 °F 43 °F 74 °F (1952)
Min Temperature 41 °F 20 °F -4 °F (1963)
Degree Days  
Heating Degree Days 15    
Moisture  
Dew Point 32 °F    
Average Humidity 53    
Maximum Humidity 71    
Minimum Humidity 34    
Precipitation  
Precipitation 0.00 in - - ()
Sea Level Pressure  
Sea Level Pressure 29.94 in    
Wind  
Wind Speed 11 mph (WNW)    
Max Wind Speed 17 mph    
Max Gust Speed 24 mph    
Visibility 10 miles    
Events      
Averages and records for this station are not official NWS values.
T = Trace of Precipitation, MM = Missing Value Source: NWS Daily Summary

Daily Weather History Graph

Daily Weather History Graph

Search for Another Location

Airport or City:

Trip Planner

Search our weather history database for the weather conditions in past years. The results will help you decide how hot, cold, wet, or windy it might be!

Date:

Astronomy

Jan. 13, 2014 Rise Set
Actual Time 7:36 AM CST 5:35 PM CST
Civil Twilight 7:09 AM CST 6:03 PM CST
Nautical Twilight 6:37 AM CST 6:34 PM CST
Astronomical Twilight 6:06 AM CST 7:05 PM CST
Moon 3:50 PM CST (1/13) 5:27 AM CST (1/13)
Length of Visible Light 10h 54m
Length of Day
9h 58m
Waxing Gibbous, 95% of the Moon is Illuminated
Jan 13
Waxing Gibbous
Jan 15
Full
Jan 23
Last Quarter
Jan 30
New
Feb 6
First Quarter

Hourly Weather History & Observations

Time (CST) Temp. Windchill Dew Point Humidity Pressure Visibility Wind Dir Wind Speed Gust Speed Precip Events Conditions
12:15 AM 51.8 °F - 37.4 °F 58% 29.77 in 10.0 mi NNW 15.0 mph 21.9 mph N/A   Clear
12:35 AM 51.8 °F - 37.4 °F 58% 29.78 in 10.0 mi NNW 16.1 mph 24.2 mph N/A   Clear
12:55 AM 51.8 °F - 37.4 °F 58% 29.80 in 10.0 mi North 15.0 mph 21.9 mph N/A   Clear
1:15 AM 51.8 °F - 37.4 °F 58% 29.82 in 10.0 mi NNW 12.7 mph 23.0 mph N/A   Clear
1:35 AM 50.0 °F - 37.4 °F 62% 29.83 in 10.0 mi NNW 10.4 mph - N/A   Clear
1:55 AM 50.0 °F - 37.4 °F 62% 29.84 in 10.0 mi NNW 9.2 mph - N/A   Clear
2:15 AM 48.2 °F - 37.4 °F 66% 29.83 in 10.0 mi North 6.9 mph - N/A   Clear
2:35 AM 46.4 °F 44.3 °F 37.4 °F 71% 29.83 in 10.0 mi NNW 4.6 mph - N/A   Clear
2:55 AM 46.4 °F 42.4 °F 35.6 °F 66% 29.85 in 10.0 mi WNW 8.1 mph - N/A   Clear
3:15 AM 44.6 °F 39.7 °F 35.6 °F 71% 29.86 in 10.0 mi WNW 9.2 mph - N/A   Clear
3:35 AM 44.6 °F 40.2 °F 35.6 °F 71% 29.86 in 10.0 mi WNW 8.1 mph - N/A   Clear
3:55 AM 44.6 °F 39.2 °F 35.6 °F 71% 29.86 in 10.0 mi NW 10.4 mph - N/A   Clear
4:15 AM 44.6 °F 40.2 °F 35.6 °F 71% 29.86 in 10.0 mi WNW 8.1 mph - N/A   Clear
4:35 AM 44.6 °F 39.2 °F 33.8 °F 66% 29.86 in 10.0 mi WNW 10.4 mph - N/A   Clear
4:55 AM 44.6 °F 38.8 °F 33.8 °F 66% 29.87 in 10.0 mi NW 11.5 mph - N/A   Clear
5:15 AM 44.6 °F 39.2 °F 33.8 °F 66% 29.87 in 10.0 mi NW 10.4 mph - N/A   Clear
5:35 AM 44.6 °F 38.8 °F 32.0 °F 61% 29.88 in 10.0 mi NW 11.5 mph 16.1 mph N/A   Clear
5:55 AM 44.6 °F 38.8 °F 32.0 °F 61% 29.88 in 10.0 mi NW 11.5 mph - N/A   Clear
6:15 AM 42.8 °F 36.6 °F 32.0 °F 66% 29.89 in 10.0 mi NW 11.5 mph - N/A   Scattered Clouds
6:35 AM 42.8 °F 37.0 °F 32.0 °F 66% 29.90 in 10.0 mi NW 10.4 mph 17.3 mph N/A   Scattered Clouds
6:55 AM 42.8 °F 36.2 °F 32.0 °F 66% 29.91 in 10.0 mi NW 12.7 mph 17.3 mph N/A   Clear
7:15 AM 41.0 °F 33.5 °F 32.0 °F 70% 29.92 in 10.0 mi NW 13.8 mph 18.4 mph N/A   Clear
7:35 AM 41.0 °F 33.5 °F 32.0 °F 70% 29.92 in 10.0 mi NW 13.8 mph 19.6 mph N/A   Clear
7:55 AM 41.0 °F 33.9 °F 32.0 °F 70% 29.93 in 10.0 mi NW 12.7 mph - N/A   Clear
8:15 AM 42.8 °F 36.2 °F 32.0 °F 66% 29.95 in 10.0 mi NW 12.7 mph - N/A   Clear
8:35 AM 42.8 °F 35.8 °F 32.0 °F 66% 29.96 in 10.0 mi NW 13.8 mph 20.7 mph N/A   Clear
8:55 AM 44.6 °F 37.2 °F 32.0 °F 61% 29.97 in 10.0 mi NW 17.3 mph 23.0 mph N/A   Clear
9:15 AM 44.6 °F 38.4 °F 32.0 °F 61% 29.99 in 10.0 mi NNW 12.7 mph 19.6 mph N/A   Clear
9:35 AM 46.4 °F 40.4 °F 32.0 °F 57% 30.00 in 10.0 mi NNW 13.8 mph - N/A   Clear
9:55 AM 46.4 °F 40.1 °F 32.0 °F 57% 30.00 in 10.0 mi North 15.0 mph 19.6 mph N/A   Clear
10:15 AM 50.0 °F - 33.8 °F 54% 30.01 in 10.0 mi NNW 15.0 mph - N/A   Clear
10:35 AM 50.0 °F - 33.8 °F 54% 30.01 in 10.0 mi NNW 13.8 mph 18.4 mph N/A   Clear
10:55 AM 51.8 °F - 33.8 °F 50% 30.01 in 10.0 mi NNW 13.8 mph - N/A   Clear
11:15 AM 53.6 °F - 33.8 °F 47% 30.01 in 10.0 mi NNW 12.7 mph - N/A   Clear
11:35 AM 53.6 °F - 33.8 °F 47% 30.01 in 10.0 mi NW 11.5 mph 16.1 mph N/A   Clear
11:55 AM 55.4 °F - 33.8 °F 44% 30.00 in 10.0 mi NNW 8.1 mph - N/A   Clear
12:15 PM 55.4 °F - 33.8 °F 44% 30.00 in 10.0 mi North 9.2 mph - N/A   Clear
12:35 PM 55.4 °F - 33.8 °F 44% 29.99 in 10.0 mi NW 11.5 mph 17.3 mph N/A   Clear
12:55 PM 57.2 °F - 33.8 °F 41% 29.99 in 10.0 mi NNW 10.4 mph - N/A   Clear
1:15 PM 59.0 °F - 33.8 °F 39% 29.99 in 10.0 mi NW 13.8 mph 20.7 mph N/A   Clear
1:35 PM 59.0 °F - 33.8 °F 39% 29.97 in 10.0 mi NW 6.9 mph 17.3 mph N/A   Clear
1:55 PM 59.0 °F - 33.8 °F 39% 29.97 in 10.0 mi NNW 12.7 mph 18.4 mph N/A   Clear
2:15 PM 59.0 °F - 33.8 °F 39% 29.98 in 10.0 mi WNW 13.8 mph 17.3 mph N/A   Clear
2:35 PM 59.0 °F - 32.0 °F 36% 29.98 in 10.0 mi NW 15.0 mph 20.7 mph N/A   Clear
2:55 PM 59.0 °F - 32.0 °F 36% 29.97 in 10.0 mi NW 15.0 mph - N/A   Clear
3:15 PM 59.0 °F - 32.0 °F 36% 29.98 in 10.0 mi WNW 15.0 mph 19.6 mph N/A   Clear
3:35 PM 59.0 °F - 32.0 °F 36% 29.98 in 10.0 mi NNW 13.8 mph 18.4 mph N/A   Clear
3:55 PM 59.0 °F - 32.0 °F 36% 29.97 in 10.0 mi West 11.5 mph 16.1 mph N/A   Clear
4:15 PM 59.0 °F - 32.0 °F 36% 29.98 in 10.0 mi WNW 12.7 mph - N/A   Clear
4:35 PM 59.0 °F - 30.2 °F 34% 29.98 in 10.0 mi WNW 15.0 mph 19.6 mph N/A   Clear
4:55 PM 57.2 °F - 30.2 °F 36% 29.98 in 10.0 mi WNW 9.2 mph - N/A   Clear
5:15 PM 55.4 °F - 30.2 °F 38% 29.98 in 10.0 mi West 8.1 mph - N/A   Clear
5:35 PM 51.8 °F - 28.4 °F 41% 29.98 in 10.0 mi West 5.8 mph - N/A   Clear
5:55 PM 51.8 °F - 28.4 °F 41% 29.97 in 10.0 mi West 3.5 mph - N/A   Clear
6:15 PM 51.8 °F - 28.4 °F 41% 29.98 in 10.0 mi West 3.5 mph - N/A   Clear
6:35 PM 50.0 °F - 28.4 °F 43% 29.98 in 10.0 mi West 4.6 mph - N/A   Clear
6:55 PM 50.0 °F - 28.4 °F 43% 29.98 in 10.0 mi West 4.6 mph - N/A   Clear
7:15 PM 48.2 °F - 28.4 °F 46% 29.98 in 10.0 mi WSW 5.8 mph - N/A   Clear
7:35 PM 46.4 °F 44.3 °F 26.6 °F 46% 29.98 in 10.0 mi SW 4.6 mph - N/A   Clear
7:55 PM 46.4 °F 42.9 °F 26.6 °F 46% 29.98 in 10.0 mi SW 6.9 mph - N/A   Clear
8:15 PM 44.6 °F 41.4 °F 26.6 °F 49% 29.98 in 10.0 mi SW 5.8 mph - N/A   Clear
8:35 PM 44.6 °F 40.7 °F 26.6 °F 49% 29.98 in 10.0 mi SW 6.9 mph - N/A   Clear
8:55 PM 44.6 °F 40.7 °F 26.6 °F 49% 29.98 in 10.0 mi SW 6.9 mph - N/A   Clear
9:15 PM 44.6 °F 40.7 °F 26.6 °F 49% 29.97 in 10.0 mi SW 6.9 mph - N/A   Clear
9:35 PM 42.8 °F 37.5 °F 26.6 °F 53% 29.97 in 10.0 mi SW 9.2 mph - N/A   Clear
9:55 PM 42.8 °F 37.5 °F 26.6 °F 53% 29.97 in 10.0 mi SW 9.2 mph - N/A   Clear
10:15 PM 42.8 °F 37.5 °F 26.6 °F 53% 29.97 in 10.0 mi SW 9.2 mph - N/A   Clear
10:35 PM 42.8 °F 37.0 °F 26.6 °F 53% 29.97 in 10.0 mi SW 10.4 mph - N/A   Clear
10:55 PM 42.8 °F 37.0 °F 24.8 °F 49% 29.97 in 10.0 mi SW 10.4 mph - N/A   Clear
11:15 PM 42.8 °F 37.0 °F 24.8 °F 49% 29.96 in 10.0 mi SW 10.4 mph - N/A   Clear
11:35 PM 42.8 °F 37.0 °F 24.8 °F 49% 29.96 in 10.0 mi WSW 10.4 mph - N/A   Clear
11:55 PM 42.8 °F 37.5 °F 24.8 °F 49% 29.95 in 10.0 mi WSW 9.2 mph - N/A   Clear